This is the latest recevied weather packets stored in our database for station/object EA3HRE-10. If no packets are shown the sender has not sent any weather packets the latest 10 day(s).
| Time | Temp. | Humidity | Pressure | Rain* | Wind** | Luminosity | Snow |
|---|---|---|---|---|---|---|---|
| 1787691789 | 27.78° C | 52% | 1014.2 hPa | - | - | - | - |
| 1787690889 | 27.78° C | 52% | 1014.1 hPa | - | - | - | - |
| 1787689989 | 27.78° C | 52% | 1014.1 hPa | - | - | - | - |
| 1787689091 | 27.78° C | 52% | 1013.9 hPa | - | - | - | - |
| 1787688190 | 27.78° C | 52% | 1013.6 hPa | - | - | - | - |
| 1787687289 | 27.78° C | 51% | 1013.4 hPa | - | - | - | - |
| 1787686388 | 27.78° C | 52% | 1013.2 hPa | - | - | - | - |
| 1787685488 | 27.78° C | 51% | 1013.2 hPa | - | - | - | - |
| 1787684619 | 27.78° C | 51% | 1013.1 hPa | - | - | - | - |
| 1787684587 | 27.78° C | 51% | 1013.1 hPa | - | - | - | - |
| 1787683689 | 27.22° C | 51% | 1012.9 hPa | - | - | - | - |
| 1787682788 | 27.22° C | 49% | 1012.9 hPa | - | - | - | - |
| 1787681888 | 27.78° C | 48% | 1012.8 hPa | - | - | - | - |
| 1787680988 | 26.67° C | 50% | 1012.6 hPa | - | - | - | - |
| 1787680098 | 26.67° C | 50% | 1012.7 hPa | - | - | - | - |
| 1787679185 | 26.67° C | 50% | 1012.6 hPa | - | - | - | - |
| 1787678284 | 26.67° C | 50% | 1012.5 hPa | - | - | - | - |
| 1787677384 | 27.22° C | 49% | 1012.5 hPa | - | - | - | - |
| 1787676484 | 27.22° C | 50% | 1012.5 hPa | - | - | - | - |
| 1787675584 | 26.67° C | 51% | 1012.3 hPa | - | - | - | - |
| 1787674684 | 26.67° C | 51% | 1012.3 hPa | - | - | - | - |
| 1787673784 | 26.11° C | 51% | 1012.3 hPa | - | - | - | - |
| 1787672885 | 26.11° C | 52% | 1012.2 hPa | - | - | - | - |
| 1787671984 | 26.11° C | 51% | 1012.2 hPa | - | - | - | - |
| 1787671084 | 26.11° C | 51% | 1012.2 hPa | - | - | - | - |
* Rain since midnight (hover to see other rain measurements)
** Current wind speed in m/s (hover to see current wind gust speed)